Location: Little Baddow
(51.7333°N, 0.5667°E)
Time: 06:01:25
(UTC+00:00)

Cosmos 2100 Rocket - Pass Details

Date: 08 November 2025
Orbit: 954 x 1000 km, 82.9° (Epoch: 11 December)

Event Time Altitude Azimuth Distance (km) Brightness Sun altitude
Rises 04:22:25 0° 349° (N) 3,647 6.9 -25.2°
Reaches altitude 10° 04:24:56 10° 349° (N) 2,696 6.2 -24.8°
Maximum altitude 04:31:06 86° 262° (W) 966 3.8 -23.8°
Drops below altitude 10° 04:37:15 10° 174° (S) 2,687 6.3 -22.9°
Sets 04:39:44 0° 174° (S) 3,634 7.1 -22.5°
